weather.gov     
National Weather Service

Regional Weather Roundup
NWS Homepage
This page is being discontinued on March 12, 2014.
The same data is available at this site. Please update your bookmarks.
Thank you, and we apologize for the inconvenience.
Please send an email to SR-SRH.Webmaster@noaa.gov with any concerns.


Current Version
Previous Version:    01  02  03  04  05  06  07  08  09  10  11  12  13  14  15  16  17  18  19  20  21  22  23  24  25  26  27  28  29  30  
   31  32  33  34  35  36  37  38  39  40  41  42  43  44  45  46  47  48  49  50  51  52  53  
[Printable]
421
ASCA42 TJSJ 020811
RWRPR
PUERTO RICO/U.S. VIRGIN ISLANDS HOURLY WEATHER ROUNDUP
NATIONAL WEATHER SERVICE SAN JUAN PR
400 AM AST SAT AUG 02 2014

PRZ001-004-020900-
PUERTO RICO

CITY           SKY/WX    TMP DP  RH WIND       PRES   REMARKS
SAN JUAN LMM   MOCLDY    81  72  74 E10       29.95S
CEIBA          MOCLDY    82  72  69 E9        29.96F
$$

PRZ006-007-020900-
U.S. VIRGIN ISLANDS

CITY           SKY/WX    TMP DP  RH WIND       PRES   REMARKS
CHARLOTTE AMA  MOCLDY    81  73  78 E18G26    29.93S
CHRISTIANSTED  MOCLDY    77  73  88 NE14      29.92S
$$

HOURLY WEATHER ROUNDUP FOR THE NEWS MEDIA

CITY           SKY/WX    TMP DP  RH WIND       PRES   REMARKS
MIAMI          PTCLDY    80  75  84 CALM      29.92F
ORLANDO        CLEAR     78  75  90 E3        29.95S
NEW YORK       LGT RAIN  72  67  84 E3        30.17S
NEWARK         LGT RAIN  73  63  70 CALM      30.16S
CHICAGO        PTCLDY    63  54  72 CALM      30.09R
HARTFORD       LGT RAIN  67  66  97 SW3       30.20F
BOSTON         LGT RAIN  68  65  90 S5        30.20F
DALLAS         CLEAR     70  66  87 N3        30.05S
PHILADELPHIA   RAIN      68  64  87 CALM      30.15F FOG




U.S. Dept. of Commerce
NOAA National Weather Service
1325 East West Highway
Silver Spring, MD 20910
E-mail: w-nws.webmaster@noaa.gov
Page last modified: May 16, 2007
NATIONAL WEATHER SERVICE: for Safety, for Work, for Fun - FOR LIFE